| time (UTC) | temp F | wind direction | speed knots | gust knots | rain 1hr in | rain 24hr in | rain mn in | humidity % | barometer mb |
| 20260505230039 | 49 | 122 | 0.0 | 0.0 | 0.00 | 0.00 | 0.00 | 1 | 1013.9 |
| 20260505224532 | 50 | 122 | 0.0 | 0.9 | 0.00 | 0.00 | 0.00 | 1 | 1014.0 |
| 20260505223023 | 50 | 122 | 0.0 | 0.9 | 0.00 | 0.00 | 0.00 | 1 | 1014.1 |
| 20260505221519 | 50 | 122 | 0.0 | 0.9 | 0.00 | 0.00 | 0.00 | 1 | 1014.2 |
| 20260505220017 | 50 | 119 | 0.0 | 0.9 | 0.00 | 0.00 | 0.00 | 1 | 1014.2 |
| 20260505214512 | 50 | 119 | 0.0 | 1.7 | 0.00 | 0.00 | 0.00 | 1 | 1014.1 |
| 20260505213017 | 50 | 119 | 0.0 | 2.6 | 0.00 | 0.00 | 0.00 | 2 | 1014.2 |
| 20260505211502 | 50 | 103 | 1.7 | 3.5 | 0.00 | 0.00 | 0.00 | 1 | 1014.2 |
| 20260505210058 | 50 | 85 | 0.0 | 3.5 | 0.00 | 0.00 | 0.00 | 4 | 1014.3 |
| 20260505204553 | 51 | 85 | 1.7 | 4.3 | 0.00 | 0.00 | 0.00 | 8 | 1014.2 |
| 20260505203049 | 51 | 109 | 2.6 | 5.2 | 0.00 | 0.00 | 0.00 | 11 | 1014.2 |
| 20260505201551 | 51 | 122 | 1.7 | 4.3 | 0.00 | 0.00 | 0.00 | 15 | 1014.2 |
| 20260505200040 | 51 | 100 | 2.6 | 3.5 | 0.00 | 0.00 | 0.00 | 18 | 1014.2 |
| 20260505194536 | 51 | 99 | 1.7 | 3.5 | 0.00 | 0.00 | 0.00 | 22 | 1014.1 |
| 20260505193032 | 51 | 114 | 1.7 | 3.5 | 0.00 | 0.00 | 0.00 | 25 | 1014.0 |
| 20260505191527 | 52 | 157 | 0.9 | 3.5 | 0.00 | 0.00 | 0.00 | 17 | 1013.9 |
| 20260505190034 | 52 | 89 | 0.9 | 5.2 | 0.00 | 0.00 | 0.00 | 15 | 1013.8 |
| 20260505184518 | 52 | 161 | 1.7 | 6.1 | 0.00 | 0.00 | 0.00 | 12 | 1013.8 |
| 20260505183014 | 52 | 122 | 4.3 | 7.8 | 0.00 | 0.00 | 0.00 | 12 | 1013.7 |
| 20260505181509 | 51 | 146 | 3.5 | 7.0 | 0.00 | 0.00 | 0.00 | 8 | 1013.7 |
| 20260505180005 | 52 | 133 | 3.5 | 8.7 | 0.00 | 0.00 | 0.00 | 7 | 1013.7 |
| 20260505174501 | 52 | 128 | 2.6 | 8.7 | 0.00 | 0.00 | 0.00 | 5 | 1013.6 |
| 20260505173104 | 52 | 105 | 5.2 | 8.7 | 0.00 | 0.00 | 0.00 | 25 | 1014.0 |
| 20260505171600 | 53 | 107 | 1.7 | 7.0 | 0.00 | 0.00 | 0.00 | 40 | 1014.0 |
| 20260505170048 | 53 | 2 | 0.9 | 7.0 | 0.00 | 0.00 | 0.00 | 50 | 1013.8 |
| 20260505164544 | 54 | 237 | 1.7 | 7.0 | 0.00 | 0.00 | 0.00 | 54 | 1013.9 |
| 20260505163040 | 54 | 330 | 3.5 | 7.8 | 0.00 | 0.00 | 0.00 | 57 | 1013.9 |
| 20260505161535 | 55 | 282 | 4.3 | 7.0 | 0.00 | 0.00 | 0.00 | 60 | 1013.8 |
| 20260505153022 | 57 | 235 | 1.7 | 5.2 | 0.00 | 0.00 | 0.00 | 60 | 1013.7 |
| 20260505151524 | 58 | 265 | 2.6 | 7.8 | 0.00 | 0.00 | 0.00 | 60 | 1013.8 |
| 20260505124534 | 56 | 347 | 1.7 | 7.0 | 0.00 | 0.00 | 0.00 | 61 | 1014.2 |
| 20260505123030 | 56 | 96 | 2.6 | 8.7 | 0.00 | 0.00 | 0.00 | 60 | 1014.2 |
| 20260505121531 | 55 | 330 | 2.6 | 9.6 | 0.00 | 0.00 | 0.00 | 60 | 1014.2 |
| 20260505120048 | 55 | 273 | 2.6 | 11.3 | 0.00 | 0.00 | 0.00 | 60 | 1014.3 |
| 20260505114517 | 54 | 249 | 4.3 | 11.3 | 0.00 | 0.00 | 0.00 | 60 | 1014.4 |
| 20260505113013 | 53 | 303 | 3.5 | 9.6 | 0.00 | 0.00 | 0.00 | 60 | 1014.6 |
| 20260505111509 | 53 | 321 | 5.2 | 9.6 | 0.00 | 0.00 | 0.00 | 59 | 1014.6 |
| 20260505101553 | 53 | 291 | 6.1 | 13.9 | 0.00 | 0.00 | 0.00 | 61 | 1014.7 |
| 20260505100047 | 53 | 337 | 7.0 | 15.6 | 0.00 | 0.00 | 0.00 | 61 | 1014.7 |
| 20260505094542 | 54 | 282 | 4.3 | 11.3 | 0.00 | 0.00 | 0.00 | 56 | 1014.7 |
| 20260505093041 | 54 | 159 | 2.6 | 11.3 | 0.00 | 0.00 | 0.00 | 55 | 1014.8 |
| 20260505091533 | 54 | 331 | 4.3 | 11.3 | 0.00 | 0.00 | 0.00 | 54 | 1014.9 |
| 20260505090039 | 53 | 279 | 5.2 | 9.6 | 0.00 | 0.00 | 0.00 | 37 | 1014.8 |
| 20260505084525 | 53 | 307 | 1.7 | 7.8 | 0.00 | 0.00 | 0.00 | 32 | 1014.9 |
| 20260505083020 | 52 | 280 | 3.5 | 7.8 | 0.00 | 0.00 | 0.00 | 33 | 1014.9 |
| 20260505081516 | 52 | 331 | 3.5 | 9.6 | 0.00 | 0.00 | 0.00 | 29 | 1014.9 |
| 20260505080011 | 50 | 281 | 4.3 | 8.7 | 0.00 | 0.00 | 0.00 | 17 | 1015.0 |
| 20260505074508 | 50 | 356 | 0.9 | 6.1 | 0.00 | 0.00 | 0.00 | 7 | 1015.0 |
| 20260505073004 | 50 | 311 | 0.9 | 5.2 | 0.00 | 0.00 | 0.00 | 3 | 1014.9 |
| 20260505071602 | 49 | 349 | 3.5 | 7.8 | 0.00 | 0.00 | 0.00 | 1 | 1014.9 |
| 20260505070055 | 48 | 286 | 1.7 | 7.0 | 0.00 | 0.00 | 0.00 | 1 | 1015.0 |
| 20260505064550 | 47 | 299 | 2.6 | 7.8 | 0.00 | 0.00 | 0.00 | 1 | 1014.9 |
| 20260505063046 | 47 | 303 | 0.9 | 5.2 | 0.00 | 0.00 | 0.00 | 1 | 1014.9 |
| 20260505061550 | 46 | 292 | 2.6 | 7.0 | 0.00 | 0.00 | 0.00 | 1 | 1014.9 |
| 20260505060037 | 46 | 316 | 3.5 | 7.8 | 0.00 | 0.00 | 0.00 | 1 | 1014.8 |
| 20260505054556 | 46 | 298 | 2.6 | 5.2 | 0.00 | 0.00 | 0.00 | 1 | 1014.9 |
| 20260505053032 | 45 | 284 | 0.9 | 5.2 | 0.00 | 0.00 | 0.00 | 1 | 1015.0 |
| 20260505051525 | 45 | 293 | 1.7 | 5.2 | 0.00 | 0.00 | 0.00 | 1 | 1014.9 |
| 20260505041511 | 44 | 284 | 0.0 | 1.7 | 0.00 | 0.00 | 0.00 | 1 | 1014.6 |
| 20260505040002 | 44 | 305 | 1.7 | 4.3 | 0.00 | 0.00 | 0.00 | 1 | 1014.6 |
| 20260505034558 | 44 | 302 | 0.9 | 3.5 | 0.00 | 0.00 | 0.00 | 1 | 1014.6 |
| 20260505033054 | 44 | 309 | 1.7 | 3.5 | 0.00 | 0.00 | 0.00 | 1 | 1014.6 |
| 20260505031605 | 44 | 292 | 1.7 | 3.5 | 0.00 | 0.00 | 0.00 | 1 | 1014.7 |
| 20260505030045 | 45 | 276 | 0.0 | 2.6 | 0.00 | 0.00 | 0.00 | 1 | 1014.8 |
| 20260505024542 | 45 | 283 | 2.6 | 5.2 | 0.00 | 0.00 | 0.00 | 2 | 1014.7 |
| 20260505023037 | 46 | 291 | 1.7 | 4.3 | 0.00 | 0.00 | 0.00 | 4 | 1014.7 |
| 20260505021532 | 46 | 261 | 1.7 | 4.3 | 0.00 | 0.00 | 0.00 | 10 | 1014.7 |
| 20260505020032 | 47 | 299 | 2.6 | 6.1 | 0.00 | 0.00 | 0.00 | 10 | 1014.7 |
| 20260505014528 | 47 | 246 | 2.6 | 7.8 | 0.00 | 0.00 | 0.00 | 9 | 1014.7 |
| 20260505013019 | 47 | 343 | 1.7 | 7.8 | 0.00 | 0.00 | 0.00 | 1 | 1014.7 |
| 20260505011528 | 47 | 295 | 2.6 | 7.0 | 0.00 | 0.00 | 0.00 | 1 | 1014.8 |
| 20260505010011 | 48 | 296 | 5.2 | 7.8 | 0.00 | 0.00 | 0.00 | 1 | 1014.8 |
| 20260505004513 | 48 | 323 | 6.1 | 10.4 | 0.00 | 0.00 | 0.00 | 1 | 1014.9 |
| 20260505003002 | 49 | 287 | 3.5 | 7.0 | 0.00 | 0.00 | 0.00 | 1 | 1014.8 |
| 20260505001600 | 49 | 291 | 2.6 | 7.8 | 0.00 | 0.00 | 0.00 | 1 | 1014.9 |
| 20260505000112 | 50 | 306 | 2.6 | 6.1 | 0.00 | 0.00 | 0.00 | 1 | 1014.9 |
| 20260504234549 | 51 | 337 | 0.0 | 2.6 | 0.00 | 0.00 | 0.00 | 1 | 1014.9 |
| 20260504233045 | 52 | 352 | 0.9 | 3.5 | 0.00 | 0.00 | 0.00 | 1 | 1014.9 |
| 20260504231540 | 52 | 26 | 0.9 | 2.6 | 0.00 | 0.00 | 0.00 | 1 | 1014.9 |